Location: La Chapelle
(48.3135°N, 1.3085°W)
Time: 09:55:08
(UTC+00:00)

SL-8 Rocket - Pass Details

Date: 03 March 2021
Orbit: 957 x 991 km, 82.9° (Epoch: 10 April)

Event Time Altitude Azimuth Distance (km) Brightness Sun altitude
Rises 19:50:55 0° 187° (S) 3,668 6.9 -20.3°
Reaches altitude 10° 19:53:25 10° 187° (S) 2,720 6.3 -20.7°
Maximum altitude 19:59:40 89° 280° (W) 978 3.9 -21.8°
Drops below altitude 10° 20:05:55 10° 9° (N) 2,715 6.4 -22.7°
Sets 20:08:25 0° 10° (N) 3,662 7.1 -23.1°
